DELTA 1 DEB, 20349

Orbit data source: Space-Track

DELTA 1 DEB, 20349 is space debris in LEO originally from a launch on Thu, 29 Jul 1976 UTC launched from the Air Force Western Test Range (AFWTR). Debris objects in space refer to the collection of defunct objects orbiting the Earth. Examples of debris include non-operational satellites, rocket bodies, and fragments generated from explosions, collisions, or faulty payload assembly.

Loading next visibility...
Identifier
20349, 1976-077FR
Orbit
LEO
Country
Flag of USUS
Related business
Manufacturer
Unknown
Mission
Spacecraft
Bus & Motor
Unknown
Mass
Unknown
Launch date (UTC)
1976-07-29 (50 years ago)
Launch vehicle
Unknown
Launch site
Air Force Western Test Range (AFWTR)
Object type
Payload
Rocket body
Debris
Shape & HBR
Unknown shape, 0.1 m
Radar Cross Section
Small (<0.1 m²)

Expand to show TLE details & history
Last TLE update: 11 hours ago

TLE from 11 hours ago
0 DELTA 1 DEB
1 20349U 76077FR  26063.29256034  .00000710  00000-0  13178-1 0  9992
2 20349 102.5651 187.7991 0618943 336.6857  46.2328 11.33702357543897
Epoch: 2026-03-04T07:01Z
TLE epoch observation values (Epoch: 2026-03-04T07:01:17.213Z)
Latitude
27.62408°
Longitude
-86.24772°
Altitude
1,654.436 km
Speed
7.19 km/s
True Right ascension
12h 04m 32s
True Declination
27° 29' 56"
Sunlit
Object was in full shadow at epoch
Visualization orbit readout
Latitude
Unknown
Longitude
Unknown
Altitude
Unknown
Speed
Unknown
Apparent Right ascension
Unknown
Apparent Declination
Unknown
Sunlit
N/A
Visualization observer readout
Local Sidereal Time
22:14:36
Azimuth
Unknown
Elevation
Unknown
Doppler factor
Unknown
Orbital elements
Apogee altitude
2,507.725 km
Perigee altitude
1,471.87 km
Semi-major axis
8,367.935 km
Eccentricity
0.06189
Inclination
102.5651°
RAAN
187.7991°
Arg. of periapsis
336.6857°
True anomaly
51.63558°
Mean anomaly
46.2328°
Eccentric anomaly
48.90537°
Mean motion
2.83541 °/min
Orbital period
126.97 mins
BSTAR
0.013178
Loading maneuver chart data...
Computing Atmospheric mass density...
Loading historical data...
Loading historical data...
Loading historical data...
Loading historical data...
Loading historical data...
Loading historical data...
Loading historical data...

Documentation

Showing up to 5 results
|